| time (UTC) | temp F | wind direction | speed MPH | gust MPH | rain 1hr in | rain 24hr in | rain mn in | humidity % | barometer mb |
| 20260508191555 | 46 | 334 | 3.0 | 5.0 | 0.00 | 0.24 | 0.00 | 91 | 1002.9 |
| 20260508190103 | 45 | 334 | 2.0 | 4.0 | 0.00 | 0.24 | 0.00 | 91 | 1003.0 |
| 20260508184544 | 44 | 334 | 3.0 | 5.0 | 0.00 | 0.52 | 0.00 | 90 | 1002.9 |
| 20260508183045 | 45 | 334 | 3.0 | 6.0 | 0.00 | 0.52 | 0.00 | 89 | 1002.8 |
| 20260508181549 | 45 | 334 | 4.0 | 6.0 | 0.00 | 0.52 | 0.00 | 88 | 1002.9 |
| 20260508180043 | 49 | 336 | 4.0 | 6.0 | 0.00 | 0.52 | 0.00 | 88 | 1003.2 |
| 20260508174543 | 48 | 336 | 4.0 | 6.0 | 0.00 | 0.52 | 0.00 | 88 | 1003.5 |
| 20260508173041 | 47 | 334 | 4.0 | 6.0 | 0.00 | 0.52 | 0.00 | 89 | 1003.4 |
| 20260508171545 | 46 | 333 | 4.0 | 7.0 | 0.00 | 0.52 | 0.00 | 88 | 1003.4 |
| 20260508170043 | 49 | 354 | 4.0 | 7.0 | 0.00 | 0.52 | 0.00 | 89 | 1003.2 |
| 20260508164540 | 49 | 358 | 6.0 | 8.0 | 0.00 | 0.52 | 0.00 | 87 | 1003.0 |
| 20260508163053 | 50 | 336 | 4.0 | 6.0 | 0.00 | 0.52 | 0.00 | 88 | 1002.9 |
| 20260508161549 | 48 | 326 | 3.0 | 7.0 | 0.00 | 0.52 | 0.00 | 90 | 1002.8 |
| 20260508160034 | 48 | 319 | 4.0 | 6.0 | 0.00 | 0.52 | 0.00 | 89 | 1002.5 |
| 20260508154533 | 49 | 317 | 4.0 | 5.0 | 0.00 | 0.52 | 0.00 | 90 | 1002.9 |
| 20260508153050 | 49 | 317 | 4.0 | 5.0 | 0.00 | 0.52 | 0.00 | 89 | 1003.2 |
| 20260508151533 | 49 | 315 | 2.0 | 5.0 | 0.00 | 0.52 | 0.00 | 91 | 1003.2 |
| 20260508150029 | 48 | 313 | 4.0 | 6.0 | 0.00 | 0.52 | 0.00 | 91 | 1003.0 |
| 20260508144527 | 49 | 307 | 3.0 | 5.0 | 0.00 | 0.52 | 0.00 | 91 | 1003.4 |
| 20260508143032 | 49 | 307 | 2.0 | 5.0 | 0.00 | 0.52 | 0.00 | 93 | 1003.4 |
| 20260508141522 | 49 | 304 | 3.0 | 5.0 | 0.00 | 0.52 | 0.00 | 94 | 1003.6 |
| 20260508140017 | 48 | 303 | 2.0 | 5.0 | 0.00 | 0.52 | 0.00 | 95 | 1003.6 |
| 20260508134516 | 47 | 301 | 3.0 | 5.0 | 0.00 | 0.52 | 0.00 | 96 | 1003.6 |
| 20260508133011 | 48 | 299 | 3.0 | 5.0 | 0.00 | 0.52 | 0.00 | 97 | 1003.3 |
| 20260508131507 | 47 | 299 | 2.0 | 4.0 | 0.00 | 0.52 | 0.00 | 98 | 1003.2 |
| 20260508130004 | 45 | 299 | 2.0 | 4.0 | 0.00 | 0.52 | 0.00 | 98 | 1003.1 |
| 20260508124559 | 44 | 299 | 2.0 | 3.0 | 0.00 | 0.52 | 0.00 | 98 | 1003.3 |
| 20260508123055 | 44 | 299 | 1.0 | 2.0 | 0.00 | 0.52 | 0.00 | 98 | 1003.3 |
| 20260508121552 | 43 | 299 | 1.0 | 3.0 | 0.00 | 0.52 | 0.00 | 98 | 1003.3 |
| 20260508120058 | 42 | 298 | 1.0 | 4.0 | 0.00 | 0.52 | 0.00 | 98 | 1003.4 |
| 20260508114544 | 41 | 298 | 2.0 | 5.0 | 0.00 | 0.52 | 0.00 | 98 | 1003.4 |
| 20260508113044 | 42 | 299 | 2.0 | 5.0 | 0.00 | 0.52 | 0.00 | 98 | 1003.5 |
| 20260508111543 | 43 | 298 | 3.0 | 5.0 | 0.00 | 0.52 | 0.00 | 98 | 1003.8 |
| 20260508110038 | 44 | 96 | 0.0 | 2.0 | 0.00 | 0.52 | 0.00 | 99 | 1003.7 |
| 20260508104539 | 43 | 96 | 2.0 | 4.0 | 0.00 | 0.52 | 0.00 | 99 | 1003.7 |
| 20260508103045 | 42 | 93 | 2.0 | 3.0 | 0.00 | 0.52 | 0.00 | 98 | 1003.6 |
| 20260508101536 | 42 | 93 | 1.0 | 3.0 | 0.00 | 0.52 | 0.00 | 99 | 1003.4 |
| 20260508100048 | 41 | 93 | 4.0 | 5.0 | 0.00 | 0.52 | 0.00 | 98 | 1003.4 |
| 20260508094531 | 40 | 93 | 3.0 | 5.0 | 0.00 | 0.52 | 0.00 | 98 | 1003.0 |
| 20260508093035 | 39 | 91 | 2.0 | 5.0 | 0.00 | 0.52 | 0.00 | 98 | 1003.2 |
| 20260508091528 | 39 | 89 | 4.0 | 5.0 | 0.00 | 0.52 | 0.00 | 97 | 1002.9 |
| 20260508090026 | 40 | 88 | 3.0 | 4.0 | 0.00 | 0.52 | 0.00 | 98 | 1002.7 |
| 20260508084521 | 40 | 87 | 1.0 | 3.0 | 0.00 | 0.52 | 0.00 | 98 | 1002.5 |
| 20260508083021 | 40 | 87 | 3.0 | 5.0 | 0.00 | 0.52 | 0.00 | 98 | 1002.3 |
| 20260508081521 | 41 | 87 | 3.0 | 5.0 | 0.00 | 0.52 | 0.00 | 98 | 1002.2 |
| 20260508080023 | 41 | 86 | 2.0 | 5.0 | 0.00 | 0.52 | 0.00 | 98 | 1002.4 |
| 20260508074518 | 41 | 85 | 2.0 | 5.0 | 0.00 | 0.52 | 0.00 | 98 | 1002.5 |
| 20260508073017 | 41 | 84 | 4.0 | 6.0 | 0.00 | 0.52 | 0.00 | 97 | 1002.5 |
| 20260508071517 | 42 | 83 | 1.0 | 4.0 | 0.00 | 0.52 | 0.00 | 98 | 1002.7 |
| 20260508070015 | 42 | 82 | 0.0 | 2.0 | 0.00 | 0.52 | 0.00 | 98 | 1002.6 |
| 20260508064514 | 42 | 82 | 2.0 | 3.0 | 0.00 | 0.52 | 0.00 | 98 | 1002.3 |
| 20260508063014 | 42 | 82 | 2.0 | 5.0 | 0.00 | 0.52 | 0.00 | 98 | 1002.8 |
| 20260508061513 | 43 | 84 | 2.0 | 5.0 | 0.00 | 0.52 | 0.00 | 98 | 1002.6 |
| 20260508060021 | 42 | 87 | 3.0 | 5.0 | 0.00 | 0.52 | 0.00 | 98 | 1002.7 |
| 20260508054523 | 42 | 96 | 3.0 | 6.0 | 0.00 | 0.52 | 0.00 | 98 | 1002.8 |
| 20260508053011 | 42 | 334 | 1.0 | 4.0 | 0.00 | 0.52 | 0.00 | 98 | 1002.7 |
| 20260508051511 | 41 | 334 | 0.0 | 5.0 | 0.00 | 0.52 | 0.00 | 98 | 1002.6 |
| 20260508050009 | 40 | 334 | 0.0 | 5.0 | 0.00 | 0.52 | 0.00 | 97 | 1002.9 |
| 20260508044508 | 41 | 334 | 2.0 | 7.0 | 0.00 | 0.52 | 0.00 | 97 | 1002.9 |
| 20260508043005 | 42 | 17 | 5.0 | 11.0 | 0.00 | 0.52 | 0.00 | 97 | 1003.3 |
| 20260508041511 | 42 | 22 | 5.0 | 8.0 | 0.00 | 0.52 | 0.00 | 97 | 1003.0 |
| 20260508040005 | 42 | 26 | 5.0 | 8.0 | 0.00 | 0.52 | 0.00 | 97 | 1003.2 |
| 20260508034502 | 42 | 39 | 8.0 | 11.0 | 0.00 | 0.52 | 0.00 | 96 | 1003.0 |
| 20260508033100 | 42 | 352 | 12.0 | 18.0 | 0.00 | 0.52 | 0.00 | 96 | 1003.2 |
| 20260508031601 | 43 | 333 | 13.0 | 19.0 | 0.00 | 0.52 | 0.00 | 94 | 1003.0 |
| 20260508030059 | 49 | 22 | 0.0 | 6.0 | 0.00 | 0.52 | 0.00 | 96 | 1002.3 |
| 20260508024603 | 49 | 353 | 1.0 | 6.0 | 0.00 | 0.52 | 0.52 | 96 | 1002.6 |
| 20260508023051 | 49 | 352 | 3.0 | 8.0 | 0.00 | 0.52 | 0.52 | 96 | 1002.5 |
| 20260508021551 | 49 | 32 | 4.0 | 6.0 | 0.00 | 0.52 | 0.52 | 96 | 1002.8 |
| 20260508014552 | 49 | 31 | 3.0 | 6.0 | 0.00 | 0.52 | 0.52 | 96 | 1002.9 |
| 20260508013049 | 49 | 38 | 2.0 | 7.0 | 0.00 | 0.52 | 0.52 | 96 | 1002.8 |
| 20260508011552 | 48 | 348 | 3.0 | 5.0 | 0.00 | 0.52 | 0.52 | 96 | 1002.6 |
| 20260508010051 | 47 | 348 | 1.0 | 3.0 | 0.00 | 0.52 | 0.52 | 96 | 1003.0 |
| 20260508004549 | 47 | 348 | 1.0 | 6.0 | 0.00 | 0.52 | 0.52 | 95 | 1003.1 |
| 20260508003049 | 47 | 349 | 2.0 | 7.0 | 0.00 | 0.52 | 0.52 | 94 | 1003.0 |
| 20260508001547 | 49 | 344 | 4.0 | 8.0 | 0.00 | 0.52 | 0.52 | 93 | 1003.1 |
| 20260508000045 | 50 | 41 | 2.0 | 5.0 | 0.00 | 0.52 | 0.52 | 95 | 1002.7 |
| 20260507234546 | 49 | 43 | 1.0 | 4.0 | 0.00 | 0.52 | 0.52 | 94 | 1002.6 |
| 20260507233045 | 48 | 41 | 8.0 | 18.0 | 0.00 | 0.52 | 0.52 | 94 | 1002.3 |
| 20260507231546 | 48 | 335 | 10.0 | 21.0 | 0.00 | 0.52 | 0.52 | 87 | 1001.9 |
| 20260507230043 | 56 | 187 | 5.0 | 10.0 | 0.00 | 0.52 | 0.52 | 91 | 1001.5 |
| 20260507224540 | 56 | 157 | 9.0 | 14.0 | 0.00 | 0.52 | 0.52 | 91 | 1001.4 |
| 20260507223039 | 56 | 157 | 10.0 | 15.0 | 0.00 | 0.52 | 0.52 | 91 | 1001.4 |
| 20260507221538 | 56 | 180 | 10.0 | 20.0 | 0.00 | 0.52 | 0.52 | 91 | 1001.5 |
| 20260507220036 | 56 | 166 | 9.0 | 20.0 | 0.00 | 0.52 | 0.52 | 92 | 1001.3 |
| 20260507214638 | 56 | 194 | 18.0 | 26.0 | 0.00 | 0.52 | 0.52 | 91 | 1001.3 |
| 20260507213036 | 56 | 159 | 11.0 | 23.0 | 0.01 | 0.52 | 0.52 | 92 | 1001.3 |
| 20260507211540 | 55 | 209 | 15.0 | 22.0 | 0.04 | 0.52 | 0.52 | 95 | 1001.3 |
| 20260507210037 | 54 | 134 | 20.0 | 25.0 | 0.09 | 0.52 | 0.52 | 95 | 1001.3 |
| 20260507204635 | 54 | 170 | 17.0 | 36.0 | 0.14 | 0.52 | 0.52 | 94 | 1001.2 |
| 20260507203036 | 55 | 141 | 23.0 | 29.0 | 0.15 | 0.51 | 0.51 | 94 | 1000.8 |
| 20260507201532 | 55 | 162 | 12.0 | 22.0 | 0.16 | 0.48 | 0.48 | 93 | 1001.7 |
| 20260507200026 | 56 | 149 | 19.0 | 30.0 | 0.14 | 0.42 | 0.42 | 93 | 1002.0 |
| 20260507194529 | 56 | 139 | 15.0 | 24.0 | 0.15 | 0.38 | 0.38 | 93 | 1003.3 |
| 20260507193032 | 57 | 147 | 19.0 | 31.0 | 0.21 | 0.36 | 0.36 | 92 | 1003.3 |